| time (UTC) | temp F | wind direction | speed MPH | gust MPH | rain 1hr in | rain 24hr in | rain mn in | humidity % | barometer mb |
| 20260903235031 | 68 | 97 | 0.0 | 0.0 | 0.00 | 0.07 | 0.07 | 91 | 996.7 |
| 20260903234539 | 68 | 97 | 0.0 | 0.0 | 0.00 | 0.07 | 0.07 | 90 | 996.6 |
| 20260903234039 | 68 | 97 | 0.0 | 0.0 | 0.00 | 0.07 | 0.07 | 90 | 996.6 |
| 20260903233528 | 69 | 97 | 0.0 | 0.0 | 0.00 | 0.07 | 0.07 | 89 | 996.5 |
| 20260903233036 | 69 | 97 | 0.0 | 0.0 | 0.00 | 0.07 | 0.07 | 88 | 996.4 |
| 20260903232544 | 70 | 97 | 0.0 | 0.0 | 0.00 | 0.07 | 0.07 | 88 | 996.3 |
| 20260903232038 | 70 | 97 | 0.0 | 0.0 | 0.00 | 0.07 | 0.07 | 86 | 996.2 |
| 20260903231526 | 71 | 97 | 0.0 | 0.0 | 0.00 | 0.07 | 0.07 | 86 | 996.3 |
| 20260903231034 | 72 | 97 | 0.0 | 0.0 | 0.00 | 0.07 | 0.07 | 84 | 996.4 |
| 20260903230546 | 73 | 97 | 0.0 | 0.0 | 0.00 | 0.07 | 0.07 | 84 | 996.5 |
| 20260903230025 | 74 | 97 | 0.0 | 0.0 | 0.00 | 0.07 | 0.07 | 82 | 996.5 |
| 20260903225555 | 74 | 97 | 0.0 | 0.0 | 0.00 | 0.07 | 0.07 | 80 | 996.4 |
| 20260903225100 | 75 | 97 | 0.0 | 2.0 | 0.00 | 0.07 | 0.07 | 78 | 996.5 |
| 20260903224525 | 76 | 97 | 0.0 | 2.0 | 0.00 | 0.07 | 0.07 | 77 | 996.5 |
| 20260903224028 | 77 | 250 | 0.0 | 0.0 | 0.00 | 0.07 | 0.07 | 76 | 996.5 |
| 20260903223538 | 78 | 250 | 0.0 | 0.0 | 0.00 | 0.07 | 0.07 | 75 | 996.5 |
| 20260903223025 | 79 | 252 | 0.0 | 0.0 | 0.00 | 0.07 | 0.07 | 74 | 996.6 |
| 20260903222526 | 80 | 252 | 0.0 | 0.0 | 0.00 | 0.07 | 0.07 | 75 | 996.5 |
| 20260903222036 | 81 | 252 | 0.0 | 0.0 | 0.00 | 0.07 | 0.07 | 73 | 996.5 |
| 20260903221526 | 82 | 252 | 0.0 | 0.0 | 0.00 | 0.07 | 0.07 | 71 | 996.5 |
| 20260903221026 | 83 | 252 | 0.0 | 1.0 | 0.00 | 0.07 | 0.07 | 68 | 996.5 |
| 20260903220538 | 84 | 46 | 0.0 | 0.0 | 0.00 | 0.07 | 0.07 | 69 | 996.3 |
| 20260903220046 | 85 | 46 | 0.0 | 1.0 | 0.00 | 0.07 | 0.07 | 66 | 996.3 |
| 20260903215530 | 85 | 46 | 0.0 | 1.0 | 0.00 | 0.07 | 0.07 | 63 | 996.3 |
| 20260903215025 | 86 | 46 | 0.0 | 1.0 | 0.00 | 0.07 | 0.07 | 63 | 996.3 |
| 20260903214550 | 86 | 46 | 0.0 | 1.0 | 0.00 | 0.07 | 0.07 | 60 | 996.2 |
| 20260903214100 | 86 | 49 | 0.0 | 1.0 | 0.00 | 0.07 | 0.07 | 57 | 996.3 |
| 20260903213526 | 86 | 240 | 0.0 | 1.0 | 0.00 | 0.07 | 0.07 | 60 | 996.4 |
| 20260903213044 | 86 | 217 | 0.0 | 3.0 | 0.00 | 0.07 | 0.07 | 63 | 996.4 |
| 20260903212551 | 86 | 217 | 0.0 | 5.0 | 0.00 | 0.07 | 0.07 | 60 | 996.3 |
| 20260903212101 | 86 | 111 | 0.0 | 1.0 | 0.00 | 0.07 | 0.07 | 67 | 996.2 |
| 20260903211529 | 85 | 244 | 0.0 | 3.0 | 0.00 | 0.07 | 0.07 | 62 | 996.4 |
| 20260903211029 | 85 | 318 | 1.0 | 3.0 | 0.00 | 0.07 | 0.07 | 61 | 996.6 |
| 20260903210522 | 85 | 278 | 1.0 | 4.0 | 0.00 | 0.07 | 0.07 | 65 | 996.7 |
| 20260903210046 | 84 | 263 | 0.0 | 4.0 | 0.00 | 0.07 | 0.07 | 68 | 996.5 |
| 20260903205524 | 83 | 72 | 1.0 | 4.0 | 0.00 | 0.07 | 0.07 | 65 | 996.4 |
| 20260903205033 | 84 | 243 | 1.0 | 3.0 | 0.00 | 0.07 | 0.07 | 73 | 996.3 |
| 20260903204543 | 84 | 122 | 0.0 | 1.0 | 0.00 | 0.07 | 0.07 | 72 | 996.3 |
| 20260903204026 | 85 | 89 | 0.0 | 3.0 | 0.00 | 0.07 | 0.07 | 74 | 996.1 |
| 20260903200538 | 82 | 287 | 0.0 | 1.0 | 0.00 | 0.07 | 0.07 | 86 | 996.1 |
| 20260903200026 | 81 | 287 | 0.0 | 0.0 | 0.00 | 0.07 | 0.07 | 89 | 996.1 |
| 20260903195553 | 80 | 281 | 0.0 | 0.0 | 0.00 | 0.07 | 0.07 | 90 | 996.1 |
| 20260903195103 | 79 | 295 | 0.0 | 0.0 | 0.00 | 0.07 | 0.07 | 90 | 996.3 |
| 20260903194541 | 79 | 296 | 0.0 | 0.0 | 0.00 | 0.07 | 0.07 | 88 | 996.3 |
| 20260903194046 | 79 | 295 | 0.0 | 0.0 | 0.00 | 0.07 | 0.07 | 88 | 996.4 |
| 20260903193537 | 79 | 295 | 0.0 | 0.0 | 0.00 | 0.07 | 0.07 | 87 | 996.5 |
| 20260903193044 | 79 | 295 | 0.0 | 0.0 | 0.00 | 0.07 | 0.07 | 87 | 996.5 |
| 20260903192543 | 80 | 295 | 0.0 | 0.0 | 0.00 | 0.07 | 0.07 | 86 | 996.5 |
| 20260903192053 | 80 | 295 | 0.0 | 0.0 | 0.00 | 0.07 | 0.07 | 86 | 996.5 |
| 20260903191529 | 80 | 336 | 0.0 | 0.0 | 0.00 | 0.07 | 0.07 | 84 | 996.6 |
| 20260903191039 | 81 | 297 | 0.0 | 0.0 | 0.00 | 0.07 | 0.07 | 83 | 996.7 |
| 20260903190551 | 81 | 304 | 0.0 | 0.0 | 0.00 | 0.07 | 0.07 | 85 | 996.7 |
| 20260903190028 | 81 | 257 | 0.0 | 0.0 | 0.00 | 0.07 | 0.07 | 83 | 996.8 |
| 20260903185535 | 81 | 292 | 0.0 | 0.0 | 0.00 | 0.07 | 0.07 | 87 | 996.7 |
| 20260903185046 | 80 | 272 | 0.0 | 0.0 | 0.00 | 0.07 | 0.07 | 84 | 996.8 |
| 20260903184525 | 80 | 290 | 0.0 | 0.0 | 0.00 | 0.07 | 0.07 | 86 | 996.9 |
| 20260903184033 | 80 | 233 | 0.0 | 0.0 | 0.00 | 0.07 | 0.07 | 83 | 997.0 |
| 20260903183544 | 80 | 84 | 0.0 | 0.0 | 0.00 | 0.07 | 0.07 | 83 | 997.0 |
| 20260903183023 | 81 | 22 | 0.0 | 0.0 | 0.00 | 0.07 | 0.07 | 82 | 997.1 |
| 20260903182531 | 81 | 357 | 0.0 | 0.0 | 0.00 | 0.07 | 0.07 | 81 | 997.1 |
| 20260903182032 | 81 | 325 | 0.0 | 0.0 | 0.00 | 0.07 | 0.07 | 81 | 997.1 |
| 20260903181521 | 81 | 287 | 0.0 | 4.0 | 0.00 | 0.07 | 0.07 | 82 | 997.1 |
| 20260903181031 | 81 | 349 | 1.0 | 4.0 | 0.00 | 0.07 | 0.07 | 83 | 997.1 |
| 20260903180530 | 80 | 308 | 0.0 | 2.0 | 0.00 | 0.07 | 0.07 | 88 | 997.2 |
| 20260903180033 | 79 | 274 | 0.0 | 2.0 | 0.00 | 0.07 | 0.07 | 86 | 997.3 |
| 20260903175542 | 78 | 296 | 1.0 | 3.0 | 0.00 | 0.07 | 0.07 | 85 | 997.3 |
| 20260903175019 | 78 | 352 | 1.0 | 3.0 | 0.00 | 0.07 | 0.07 | 85 | 997.4 |
| 20260903174529 | 78 | 25 | 0.0 | 3.0 | 0.00 | 0.07 | 0.07 | 87 | 997.5 |
| 20260903174037 | 78 | 334 | 0.0 | 3.0 | 0.00 | 0.07 | 0.07 | 86 | 997.5 |
| 20260903173539 | 78 | 6 | 0.0 | 3.0 | 0.00 | 0.07 | 0.07 | 88 | 997.5 |
| 20260903173027 | 77 | 80 | 1.0 | 3.0 | 0.00 | 0.07 | 0.07 | 87 | 997.6 |
| 20260903172537 | 77 | 45 | 0.0 | 4.0 | 0.00 | 0.07 | 0.07 | 88 | 997.7 |
| 20260903172037 | 77 | 286 | 1.0 | 4.0 | 0.00 | 0.07 | 0.07 | 87 | 997.7 |
| 20260903171545 | 77 | 19 | 1.0 | 4.0 | 0.00 | 0.07 | 0.07 | 87 | 997.8 |
| 20260903171030 | 77 | 225 | 0.0 | 4.0 | 0.00 | 0.07 | 0.07 | 88 | 997.8 |
| 20260903170541 | 77 | 308 | 1.0 | 4.0 | 0.00 | 0.07 | 0.07 | 87 | 997.9 |
| 20260903170032 | 77 | 233 | 0.0 | 4.0 | 0.00 | 0.07 | 0.07 | 88 | 997.9 |
| 20260903165522 | 77 | 288 | 1.0 | 4.0 | 0.00 | 0.07 | 0.07 | 88 | 997.9 |
| 20260903165022 | 76 | 258 | 0.0 | 3.0 | 0.00 | 0.07 | 0.07 | 90 | 997.9 |
| 20260903164531 | 76 | 103 | 1.0 | 3.0 | 0.00 | 0.07 | 0.07 | 91 | 998.0 |
| 20260903164033 | 75 | 251 | 0.0 | 2.0 | 0.00 | 0.07 | 0.07 | 91 | 998.0 |
| 20260903163544 | 75 | 7 | 1.0 | 1.0 | 0.00 | 0.07 | 0.07 | 91 | 998.1 |
| 20260903163022 | 74 | 282 | 0.0 | 2.0 | 0.00 | 0.07 | 0.07 | 91 | 998.1 |
| 20260903162551 | 74 | 59 | 0.0 | 2.0 | 0.00 | 0.07 | 0.07 | 94 | 998.2 |
| 20260903162057 | 73 | 63 | 0.0 | 2.0 | 0.00 | 0.07 | 0.07 | 94 | 998.2 |
| 20260903161527 | 73 | 252 | 0.0 | 2.0 | 0.00 | 0.07 | 0.07 | 95 | 998.4 |
| 20260903161023 | 72 | 297 | 0.0 | 1.0 | 0.00 | 0.07 | 0.07 | 95 | 998.3 |
| 20260903160535 | 72 | 300 | 0.0 | 1.0 | 0.00 | 0.07 | 0.07 | 95 | 998.5 |
| 20260903160038 | 72 | 300 | 0.0 | 1.0 | 0.00 | 0.07 | 0.07 | 95 | 998.5 |
| 20260903155544 | 71 | 300 | 0.0 | 1.0 | 0.00 | 0.07 | 0.07 | 95 | 998.6 |
| 20260903155022 | 71 | 301 | 0.0 | 1.0 | 0.00 | 0.07 | 0.07 | 95 | 998.5 |
| 20260903154531 | 71 | 302 | 0.0 | 1.0 | 0.00 | 0.07 | 0.07 | 97 | 998.6 |
| 20260903154041 | 71 | 302 | 0.0 | 1.0 | 0.00 | 0.07 | 0.07 | 96 | 998.7 |
| 20260903153523 | 71 | 302 | 0.0 | 1.0 | 0.00 | 0.07 | 0.07 | 96 | 998.7 |
| 20260903153031 | 71 | 302 | 0.0 | 0.0 | 0.00 | 0.07 | 0.07 | 96 | 998.7 |
| 20260903152527 | 71 | 302 | 0.0 | 0.0 | 0.00 | 0.07 | 0.07 | 96 | 998.8 |
| 20260903152037 | 71 | 302 | 0.0 | 0.0 | 0.00 | 0.07 | 0.07 | 97 | 998.8 |
| 20260903151521 | 70 | 302 | 0.0 | 0.0 | 0.00 | 0.07 | 0.07 | 97 | 998.8 |
| 20260903151028 | 70 | 300 | 0.0 | 0.0 | 0.00 | 0.07 | 0.07 | 97 | 998.8 |
| 20260903150536 | 70 | 300 | 0.0 | 0.0 | 0.00 | 0.07 | 0.07 | 97 | 998.8 |
| 20260903150045 | 70 | 300 | 0.0 | 0.0 | 0.00 | 0.07 | 0.07 | 96 | 998.9 |
| 20260903145525 | 70 | 300 | 0.0 | 0.0 | 0.00 | 0.07 | 0.07 | 97 | 998.8 |
| 20260903145035 | 70 | 300 | 0.0 | 0.0 | 0.00 | 0.07 | 0.07 | 97 | 998.9 |
| 20260903144536 | 70 | 300 | 0.0 | 1.0 | 0.00 | 0.07 | 0.07 | 96 | 998.8 |
| 20260903144026 | 70 | 300 | 0.0 | 1.0 | 0.00 | 0.07 | 0.07 | 96 | 998.7 |
| 20260903143538 | 70 | 300 | 0.0 | 0.0 | 0.00 | 0.07 | 0.07 | 97 | 998.8 |
| 20260903143037 | 70 | 300 | 0.0 | 0.0 | 0.00 | 0.07 | 0.07 | 97 | 998.8 |
| 20260903142524 | 70 | 300 | 0.0 | 0.0 | 0.00 | 0.07 | 0.07 | 97 | 998.8 |
| 20260903142035 | 70 | 300 | 0.0 | 0.0 | 0.00 | 0.07 | 0.07 | 97 | 998.9 |
| 20260903141534 | 70 | 300 | 0.0 | 1.0 | 0.00 | 0.07 | 0.07 | 97 | 998.9 |
| 20260903141023 | 70 | 300 | 0.0 | 1.0 | 0.00 | 0.07 | 0.07 | 97 | 998.8 |
| 20260903140550 | 70 | 30 | 0.0 | 2.0 | 0.00 | 0.07 | 0.07 | 98 | 998.8 |
| 20260903140028 | 69 | 30 | 0.0 | 2.0 | 0.00 | 0.07 | 0.07 | 98 | 998.8 |
| 20260903135536 | 69 | 27 | 0.0 | 1.0 | 0.00 | 0.07 | 0.07 | 98 | 998.9 |
| 20260903135046 | 69 | 250 | 0.0 | 1.0 | 0.00 | 0.07 | 0.07 | 99 | 998.8 |
| 20260903134526 | 69 | 254 | 0.0 | 5.0 | 0.00 | 0.07 | 0.07 | 99 | 998.8 |
| 20260903134035 | 68 | 254 | 1.0 | 5.0 | 0.00 | 0.07 | 0.07 | 99 | 998.8 |
| 20260903133547 | 68 | 238 | 0.0 | 3.0 | 0.00 | 0.07 | 0.07 | 99 | 998.9 |
| 20260903133023 | 68 | 89 | 1.0 | 3.0 | 0.00 | 0.07 | 0.07 | 99 | 999.0 |
| 20260903132530 | 68 | 276 | 0.0 | 2.0 | 0.00 | 0.07 | 0.07 | 99 | 999.1 |
| 20260903132020 | 68 | 299 | 0.0 | 0.0 | 0.00 | 0.07 | 0.07 | 100 | 999.0 |
| 20260903131547 | 67 | 298 | 0.0 | 1.0 | 0.00 | 0.07 | 0.07 | 100 | 998.9 |
| 20260903131055 | 67 | 298 | 0.0 | 1.0 | 0.00 | 0.07 | 0.07 | 99 | 998.9 |
| 20260903130536 | 67 | 302 | 0.0 | 1.0 | 0.00 | 0.07 | 0.07 | 99 | 999.0 |
| 20260903130045 | 67 | 301 | 0.0 | 3.0 | 0.00 | 0.07 | 0.07 | 99 | 999.0 |
| 20260903125552 | 67 | 267 | 1.0 | 3.0 | 0.00 | 0.07 | 0.07 | 99 | 999.1 |
| 20260903125102 | 67 | 276 | 0.0 | 1.0 | 0.00 | 0.07 | 0.07 | 100 | 999.1 |
| 20260903124521 | 67 | 300 | 0.0 | 2.0 | 0.00 | 0.07 | 0.07 | 100 | 999.1 |
| 20260903124031 | 67 | 301 | 0.0 | 2.0 | 0.00 | 0.07 | 0.07 | 100 | 999.2 |
| 20260903123542 | 67 | 267 | 0.0 | 2.0 | 0.00 | 0.07 | 0.07 | 100 | 999.2 |
| 20260903123021 | 66 | 293 | 0.0 | 2.0 | 0.00 | 0.07 | 0.07 | 100 | 999.1 |
| 20260903122530 | 66 | 244 | 0.0 | 2.0 | 0.00 | 0.07 | 0.07 | 100 | 999.1 |
| 20260903122031 | 66 | 307 | 0.0 | 2.0 | 0.00 | 0.07 | 0.07 | 100 | 999.1 |
| 20260903121521 | 66 | 343 | 1.0 | 2.0 | 0.00 | 0.07 | 0.07 | 100 | 999.0 |
| 20260903121028 | 66 | 347 | 0.0 | 2.0 | 0.00 | 0.07 | 0.07 | 100 | 999.1 |
| 20260903120530 | 66 | 328 | 0.0 | 1.0 | 0.00 | 0.07 | 0.07 | 100 | 999.1 |
| 20260903120038 | 66 | 120 | 0.0 | 1.0 | 0.00 | 0.07 | 0.07 | 100 | 999.2 |
| 20260903115543 | 65 | 262 | 0.0 | 1.0 | 0.00 | 0.07 | 0.07 | 100 | 999.2 |
| 20260903115052 | 65 | 245 | 0.0 | 1.0 | 0.00 | 0.07 | 0.07 | 100 | 999.2 |
| 20260903114600 | 65 | 70 | 0.0 | 0.0 | 0.00 | 0.07 | 0.07 | 100 | 999.2 |
| 20260903114036 | 65 | 70 | 0.0 | 2.0 | 0.00 | 0.07 | 0.07 | 100 | 999.2 |
| 20260903113548 | 65 | 70 | 0.0 | 2.0 | 0.00 | 0.07 | 0.07 | 100 | 999.3 |
| 20260903113034 | 65 | 316 | 0.0 | 1.0 | 0.00 | 0.07 | 0.07 | 100 | 999.3 |
| 20260903112544 | 65 | 273 | 0.0 | 1.0 | 0.00 | 0.07 | 0.07 | 100 | 999.4 |
| 20260903112024 | 65 | 230 | 0.0 | 2.0 | 0.00 | 0.07 | 0.07 | 100 | 999.4 |
| 20260903111534 | 65 | 94 | 0.0 | 2.0 | 0.00 | 0.07 | 0.07 | 100 | 999.3 |
| 20260903111044 | 65 | 49 | 0.0 | 1.0 | 0.00 | 0.07 | 0.07 | 100 | 999.3 |
| 20260903110524 | 65 | 48 | 0.0 | 1.0 | 0.00 | 0.07 | 0.07 | 100 | 999.3 |
| 20260903110032 | 65 | 48 | 0.0 | 1.0 | 0.00 | 0.07 | 0.07 | 99 | 999.3 |
| 20260903105533 | 65 | 49 | 0.0 | 1.0 | 0.00 | 0.07 | 0.07 | 99 | 999.3 |
| 20260903105041 | 65 | 310 | 0.0 | 0.0 | 0.00 | 0.07 | 0.07 | 99 | 999.2 |
| 20260903104544 | 65 | 310 | 0.0 | 0.0 | 0.01 | 0.07 | 0.07 | 99 | 999.2 |
| 20260903104032 | 65 | 310 | 0.0 | 0.0 | 0.01 | 0.07 | 0.07 | 99 | 999.2 |
| 20260903103543 | 65 | 310 | 0.0 | 0.0 | 0.01 | 0.07 | 0.07 | 99 | 999.2 |
| 20260903103021 | 65 | 310 | 0.0 | 0.0 | 0.01 | 0.07 | 0.07 | 99 | 999.2 |
| 20260903102530 | 65 | 310 | 0.0 | 0.0 | 0.01 | 0.07 | 0.07 | 99 | 999.3 |
| 20260903102040 | 65 | 310 | 0.0 | 0.0 | 0.01 | 0.07 | 0.07 | 99 | 999.2 |
| 20260903101538 | 65 | 310 | 0.0 | 0.0 | 0.01 | 0.07 | 0.07 | 99 | 999.2 |
| 20260903101047 | 65 | 310 | 0.0 | 0.0 | 0.01 | 0.07 | 0.07 | 99 | 999.2 |
| 20260903100600 | 65 | 310 | 0.0 | 0.0 | 0.01 | 0.07 | 0.07 | 99 | 999.1 |
| 20260903100027 | 65 | 310 | 0.0 | 0.0 | 0.02 | 0.07 | 0.07 | 99 | 999.1 |
| 20260903095528 | 65 | 310 | 0.0 | 0.0 | 0.02 | 0.07 | 0.07 | 99 | 999.1 |
| 20260903095037 | 65 | 310 | 0.0 | 0.0 | 0.02 | 0.07 | 0.07 | 99 | 999.1 |
| 20260903094529 | 65 | 310 | 0.0 | 0.0 | 0.02 | 0.06 | 0.06 | 99 | 999.1 |
| 20260903094029 | 65 | 310 | 0.0 | 0.0 | 0.02 | 0.06 | 0.06 | 99 | 999.1 |
| 20260903093534 | 65 | 310 | 0.0 | 0.0 | 0.02 | 0.06 | 0.06 | 99 | 999.0 |
| 20260903093042 | 65 | 310 | 0.0 | 1.0 | 0.02 | 0.06 | 0.06 | 99 | 999.1 |
| 20260903092521 | 64 | 310 | 0.0 | 1.0 | 0.03 | 0.06 | 0.06 | 99 | 999.0 |
| 20260903092050 | 64 | 322 | 0.0 | 0.0 | 0.03 | 0.06 | 0.06 | 99 | 999.0 |
| 20260903091601 | 64 | 322 | 0.0 | 0.0 | 0.03 | 0.06 | 0.06 | 99 | 999.0 |
| 20260903091048 | 64 | 322 | 0.0 | 0.0 | 0.03 | 0.06 | 0.06 | 99 | 999.0 |
| 20260903090539 | 64 | 322 | 0.0 | 0.0 | 0.03 | 0.06 | 0.06 | 99 | 999.1 |
| 20260903090047 | 64 | 322 | 0.0 | 0.0 | 0.03 | 0.05 | 0.05 | 99 | 999.1 |
| 20260903085528 | 64 | 322 | 0.0 | 2.0 | 0.03 | 0.05 | 0.05 | 99 | 999.2 |
| 20260903085037 | 64 | 322 | 0.0 | 2.0 | 0.03 | 0.05 | 0.05 | 99 | 999.2 |
| 20260903084547 | 64 | 14 | 0.0 | 0.0 | 0.02 | 0.04 | 0.04 | 99 | 999.3 |
| 20260903084027 | 64 | 14 | 0.0 | 0.0 | 0.03 | 0.04 | 0.04 | 99 | 999.3 |
| 20260903083540 | 64 | 14 | 0.0 | 0.0 | 0.03 | 0.04 | 0.04 | 98 | 999.3 |
| 20260903083039 | 64 | 14 | 0.0 | 0.0 | 0.03 | 0.04 | 0.04 | 98 | 999.3 |
| 20260903082527 | 64 | 13 | 0.0 | 0.0 | 0.02 | 0.03 | 0.03 | 98 | 999.4 |
| 20260903082034 | 64 | 13 | 0.0 | 0.0 | 0.02 | 0.03 | 0.03 | 98 | 999.5 |
| 20260903081535 | 64 | 14 | 0.0 | 0.0 | 0.02 | 0.03 | 0.03 | 98 | 999.5 |
| 20260903081023 | 64 | 13 | 0.0 | 0.0 | 0.02 | 0.03 | 0.03 | 98 | 999.5 |
| 20260903080525 | 64 | 13 | 0.0 | 0.0 | 0.02 | 0.03 | 0.03 | 98 | 999.4 |
| 20260903080033 | 64 | 14 | 0.0 | 1.0 | 0.01 | 0.02 | 0.02 | 98 | 999.4 |
| 20260903075542 | 64 | 13 | 0.0 | 1.0 | 0.02 | 0.02 | 0.02 | 98 | 999.4 |
| 20260903075049 | 64 | 14 | 0.0 | 1.0 | 0.02 | 0.02 | 0.02 | 98 | 999.4 |
| 20260903074558 | 64 | 25 | 0.0 | 1.0 | 0.02 | 0.02 | 0.02 | 98 | 999.5 |
| 20260903074023 | 64 | 6 | 0.0 | 1.0 | 0.01 | 0.01 | 0.01 | 97 | 999.5 |
| 20260903073526 | 64 | 255 | 0.0 | 1.0 | 0.01 | 0.01 | 0.01 | 97 | 999.6 |
| 20260903073034 | 64 | 254 | 0.0 | 0.0 | 0.01 | 0.01 | 0.01 | 97 | 999.7 |
| 20260903072543 | 64 | 254 | 0.0 | 1.0 | 0.01 | 0.01 | 0.01 | 97 | 999.7 |
| 20260903072023 | 64 | 254 | 0.0 | 1.0 | 0.01 | 0.01 | 0.01 | 97 | 999.7 |
| 20260903071533 | 65 | 251 | 0.0 | 1.0 | 0.01 | 0.01 | 0.01 | 97 | 999.5 |
| 20260903071036 | 65 | 251 | 0.0 | 1.0 | 0.01 | 0.01 | 0.01 | 97 | 999.7 |
| 20260903070538 | 65 | 47 | 0.0 | 2.0 | 0.01 | 0.01 | 0.01 | 96 | 999.6 |
| 20260903070026 | 65 | 316 | 0.0 | 3.0 | 0.01 | 0.01 | 0.01 | 96 | 999.5 |
| 20260903065533 | 65 | 293 | 0.0 | 4.0 | 0.00 | 0.00 | 0.00 | 96 | 999.5 |
| 20260903065034 | 65 | 246 | 1.0 | 4.0 | 0.00 | 0.00 | 0.00 | 96 | 999.5 |
| 20260903064522 | 65 | 248 | 1.0 | 4.0 | 0.00 | 0.00 | 0.00 | 95 | 999.6 |
| 20260903064023 | 65 | 323 | 0.0 | 4.0 | 0.00 | 0.00 | 0.00 | 95 | 999.6 |
| 20260903063535 | 65 | 72 | 1.0 | 2.0 | 0.00 | 0.00 | 0.00 | 95 | 999.6 |
| 20260903063023 | 65 | 256 | 0.0 | 6.0 | 0.00 | 0.00 | 0.00 | 95 | 999.5 |
| 20260903062524 | 65 | 278 | 1.0 | 6.0 | 0.00 | 0.00 | 0.00 | 95 | 999.7 |
| 20260903062053 | 65 | 307 | 0.0 | 4.0 | 0.00 | 0.00 | 0.00 | 95 | 999.7 |
| 20260903061612 | 65 | 51 | 0.0 | 4.0 | 0.00 | 0.00 | 0.00 | 95 | 999.7 |
| 20260903061027 | 65 | 46 | 0.0 | 2.0 | 0.00 | 0.00 | 0.00 | 95 | 999.6 |
| 20260903060539 | 65 | 85 | 0.0 | 3.0 | 0.00 | 0.00 | 0.00 | 95 | 999.7 |
| 20260903060037 | 65 | 98 | 1.0 | 3.0 | 0.00 | 0.00 | 0.00 | 94 | 999.6 |
| 20260903055541 | 65 | 17 | 1.0 | 2.0 | 0.00 | 0.00 | 0.00 | 94 | 999.8 |
| 20260903055049 | 64 | 311 | 0.0 | 2.0 | 0.00 | 0.00 | 0.00 | 94 | 999.9 |
| 20260903054537 | 65 | 345 | 0.0 | 2.0 | 0.00 | 0.00 | 0.00 | 94 | 1000.0 |
| 20260903054047 | 65 | 121 | 0.0 | 2.0 | 0.00 | 0.00 | 0.00 | 94 | 1000.2 |
| 20260903053530 | 65 | 21 | 1.0 | 2.0 | 0.00 | 0.00 | 0.00 | 94 | 1000.3 |
| 20260903053038 | 64 | 211 | 0.0 | 3.0 | 0.00 | 0.00 | 0.00 | 94 | 1000.4 |
| 20260903052548 | 64 | 278 | 1.0 | 4.0 | 0.00 | 0.00 | 0.00 | 94 | 1000.4 |
| 20260903052045 | 64 | 279 | 1.0 | 4.0 | 0.00 | 0.00 | 0.00 | 94 | 1000.4 |
| 20260903051604 | 64 | 288 | 0.0 | 2.0 | 0.00 | 0.00 | 0.00 | 94 | 1000.3 |
| 20260903051023 | 64 | 264 | 0.0 | 5.0 | 0.00 | 0.00 | 0.00 | 94 | 1000.5 |
| 20260903050535 | 64 | 51 | 1.0 | 5.0 | 0.00 | 0.00 | 0.00 | 94 | 1000.6 |
| 20260903050035 | 64 | 19 | 1.0 | 2.0 | 0.00 | 0.00 | 0.00 | 94 | 1000.6 |
| 20260903045524 | 64 | 338 | 0.0 | 4.0 | 0.00 | 0.00 | 0.00 | 93 | 1000.7 |
| 20260903045034 | 64 | 50 | 1.0 | 4.0 | 0.00 | 0.00 | 0.00 | 93 | 1000.5 |
| 20260903044531 | 64 | 276 | 0.0 | 1.0 | 0.00 | 0.00 | 0.00 | 94 | 1000.2 |
| 20260903044021 | 64 | 31 | 0.0 | 2.0 | 0.00 | 0.00 | 0.00 | 94 | 1000.1 |
| 20260903043524 | 64 | 43 | 0.0 | 4.0 | 0.00 | 0.00 | 0.00 | 94 | 1000.2 |
| 20260903043029 | 64 | 319 | 1.0 | 4.0 | 0.00 | 0.00 | 0.00 | 94 | 1000.3 |
| 20260903042536 | 64 | 26 | 0.0 | 2.0 | 0.00 | 0.00 | 0.00 | 94 | 1000.1 |
| 20260903042046 | 64 | 84 | 0.0 | 3.0 | 0.00 | 0.00 | 0.00 | 94 | 1000.2 |
| 20260903041524 | 64 | 88 | 0.0 | 3.0 | 0.00 | 0.00 | 0.00 | 93 | 1000.3 |
| 20260903041033 | 64 | 302 | 0.0 | 2.0 | 0.00 | 0.00 | 0.00 | 93 | 1000.5 |
| 20260903040545 | 64 | 103 | 0.0 | 2.0 | 0.00 | 0.00 | 0.00 | 94 | 1000.6 |
| 20260903040043 | 64 | 30 | 0.0 | 2.0 | 0.00 | 0.00 | 0.00 | 93 | 1000.6 |
| 20260903035532 | 64 | 351 | 0.0 | 2.0 | 0.00 | 0.00 | 0.00 | 93 | 1000.6 |
| 20260903035039 | 64 | 30 | 1.0 | 2.0 | 0.00 | 0.00 | 0.00 | 93 | 1000.6 |
| 20260903034547 | 64 | 47 | 0.0 | 3.0 | 0.00 | 0.00 | 0.00 | 92 | 1000.7 |
| 20260903034054 | 64 | 127 | 1.0 | 3.0 | 0.00 | 0.00 | 0.00 | 92 | 1000.8 |
| 20260903033603 | 64 | 20 | 0.0 | 3.0 | 0.00 | 0.00 | 0.00 | 92 | 1000.7 |
| 20260903033021 | 65 | 290 | 0.0 | 3.0 | 0.00 | 0.00 | 0.00 | 92 | 1000.8 |
| 20260903032531 | 65 | 136 | 0.0 | 5.0 | 0.00 | 0.00 | 0.00 | 91 | 1000.7 |
| 20260903032038 | 65 | 3 | 1.0 | 8.0 | 0.00 | 0.00 | 0.00 | 91 | 1000.7 |
| 20260903031539 | 65 | 48 | 1.0 | 3.0 | 0.00 | 0.00 | 0.00 | 91 | 1000.7 |
| 20260903031028 | 66 | 90 | 0.0 | 1.0 | 0.00 | 0.00 | 0.00 | 91 | 1000.9 |
| 20260903030540 | 66 | 312 | 0.0 | 1.0 | 0.00 | 0.00 | 0.00 | 90 | 1001.2 |
| 20260903030039 | 66 | 30 | 0.0 | 5.0 | 0.00 | 0.00 | 0.00 | 89 | 1001.4 |
| 20260903025548 | 66 | 29 | 1.0 | 5.0 | 0.00 | 0.00 | 0.00 | 88 | 1001.5 |
| 20260903025036 | 66 | 258 | 0.0 | 3.0 | 0.00 | 0.00 | 0.00 | 89 | 1001.5 |
| 20260903024546 | 66 | 274 | 1.0 | 3.0 | 0.00 | 0.00 | 0.00 | 89 | 1001.5 |
| 20260903024027 | 66 | 39 | 0.0 | 2.0 | 0.00 | 0.00 | 0.00 | 89 | 1001.6 |
| 20260903023555 | 66 | 338 | 1.0 | 3.0 | 0.00 | 0.00 | 0.00 | 89 | 1001.7 |
| 20260903023057 | 66 | 301 | 1.0 | 7.0 | 0.00 | 0.00 | 0.00 | 89 | 1001.6 |
| 20260903022544 | 66 | 342 | 1.0 | 7.0 | 0.00 | 0.00 | 0.00 | 89 | 1001.6 |
| 20260903022032 | 66 | 346 | 0.0 | 5.0 | 0.00 | 0.00 | 0.00 | 89 | 1001.6 |
| 20260903021532 | 66 | 89 | 2.0 | 8.0 | 0.00 | 0.00 | 0.00 | 89 | 1001.5 |
| 20260903021041 | 66 | 279 | 1.0 | 8.0 | 0.00 | 0.00 | 0.00 | 89 | 1001.6 |
| 20260903020551 | 66 | 340 | 1.0 | 5.0 | 0.00 | 0.00 | 0.00 | 89 | 1001.6 |
| 20260903020058 | 67 | 177 | 1.0 | 5.0 | 0.00 | 0.00 | 0.00 | 90 | 1001.7 |
| 20260903015545 | 67 | 5 | 0.0 | 5.0 | 0.00 | 0.00 | 0.00 | 90 | 1001.8 |
| 20260903015053 | 67 | 330 | 2.0 | 5.0 | 0.00 | 0.00 | 0.00 | 90 | 1002.0 |
| 20260903014520 | 67 | 36 | 0.0 | 3.0 | 0.00 | 0.00 | 0.00 | 90 | 1002.1 |
| 20260903014043 | 67 | 252 | 1.0 | 7.0 | 0.00 | 0.00 | 0.00 | 90 | 1002.3 |
| 20260903013526 | 67 | 347 | 1.0 | 7.0 | 0.00 | 0.00 | 0.00 | 90 | 1002.3 |
| 20260903013034 | 66 | 84 | 1.0 | 4.0 | 0.00 | 0.00 | 0.00 | 91 | 1002.4 |
| 20260903012542 | 66 | 304 | 0.0 | 2.0 | 0.00 | 0.00 | 0.00 | 90 | 1002.5 |
| 20260903012050 | 66 | 49 | 1.0 | 3.0 | 0.00 | 0.00 | 0.00 | 90 | 1002.6 |
| 20260903011601 | 66 | 73 | 1.0 | 3.0 | 0.00 | 0.00 | 0.00 | 90 | 1002.5 |
| 20260903011021 | 66 | 169 | 0.0 | 4.0 | 0.00 | 0.00 | 0.00 | 90 | 1002.6 |
| 20260903010553 | 66 | 331 | 1.0 | 4.0 | 0.00 | 0.00 | 0.00 | 90 | 1002.6 |
| 20260903010059 | 66 | 108 | 0.0 | 3.0 | 0.00 | 0.00 | 0.00 | 90 | 1002.4 |
| 20260903005546 | 66 | 353 | 1.0 | 3.0 | 0.00 | 0.00 | 0.00 | 91 | 1002.5 |
| 20260903005050 | 66 | 261 | 0.0 | 3.0 | 0.00 | 0.00 | 0.00 | 92 | 1002.4 |
| 20260903004538 | 66 | 344 | 1.0 | 3.0 | 0.00 | 0.00 | 0.00 | 92 | 1002.4 |
| 20260903004048 | 66 | 1 | 0.0 | 1.0 | 0.00 | 0.00 | 0.00 | 92 | 1002.5 |
| 20260903003530 | 66 | 1 | 0.0 | 1.0 | 0.00 | 0.00 | 0.00 | 92 | 1002.6 |
| 20260903003038 | 66 | 228 | 0.0 | 2.0 | 0.00 | 0.00 | 0.00 | 92 | 1002.6 |
| 20260903002548 | 66 | 276 | 0.0 | 1.0 | 0.00 | 0.00 | 0.00 | 93 | 1002.5 |
| 20260903002047 | 66 | 214 | 0.0 | 1.0 | 0.00 | 0.00 | 0.00 | 93 | 1002.2 |
| 20260903001536 | 66 | 214 | 0.0 | 1.0 | 0.00 | 0.00 | 0.00 | 93 | 1002.1 |
| 20260903001046 | 66 | 214 | 0.0 | 2.0 | 0.00 | 0.00 | 0.00 | 93 | 1002.2 |
| 20260903000529 | 66 | 117 | 0.0 | 2.0 | 0.00 | 0.00 | 0.00 | 93 | 1002.0 |
| 20260903000033 | 66 | 49 | 0.0 | 1.0 | 0.00 | 0.00 | 0.00 | 93 | 1001.8 |
| 20260902235543 | 66 | 49 | 0.0 | 1.0 | 0.00 | 0.00 | 0.00 | 92 | 1001.6 |